RH
35 35 29 21 18 19 19 18 18 18 17 17 17 17 16 16 20 20 16 16 18 16 15 16 17 20 22 21 21 21 19 18 19 19 21 26 31 35 38 40 43 50 57 60 61 63 65 67 68 65 64 69 71 70 69 69 70 72 71 71 76 85 91 88 80 81 87 87 86 88 90 92 94 91 87 84 78 75 75 70 60 52 50 50 49 45 36
34 33 29 22 17 17 17 16 17 17 17 17 16 15 16 16 17 16 15 17 18 17 17 18 18 20 19 18 18 18 17 18 19 21 25 31 36 39 41 42 45 49 55 60 62 61 61 62 63 60 58 61 68 72 72 71 72 72 71 70 75 82 92 94 85 78 81 86 86 86 90 94 95 92 90 88 82 78 78 73 61 53 52 50 47 39 27
35 29 23 21 18 16 17 17 16 16 16 16 16 15 15 14 15 17 16 17 17 17 18 18 18 20 19 19 19 19 23 26 27 28 32 35 38 39 39 42 45 48 54 59 61 59 60 61 63 63 61 63 70 75 76 74 74 75 74 72 74 80 89 96 94 85 78 79 81 84 88 92 95 95 93 88 83 83 84 76 61 54 53 49 40 29 18
36 28 20 20 18 16 17 17 17 17 16 16 15 15 15 13 14 17 18 17 16 16 16 16 18 20 20 20 20 23 29 30 29 32 35 37 39 37 36 37 39 43 48 51 52 53 55 59 61 62 63 65 69 75 80 82 82 81 81 78 77 80 85 92 96 93 86 83 83 86 92 96 98 99 94 87 84 88 89 79 62 55 52 44 31 21 12
34 30 23 17 16 19 20 17 17 16 15 15 15 14 14 13 13 16 17 16 15 14 14 15 17 21 21 20 21 24 27 27 30 34 36 37 38 39 39 38 38 40 43 46 48 50 54 57 58 59 62 64 67 70 73 77 82 86 90 92 88 85 87 91 92 92 93 95 95 93 95 96 98 99 96 91 90 91 89 77 61 54 48 35 22 14 8
34 33 25 16 20 28 24 16 16 16 15 15 15 13 13 13 13 14 15 14 14 14 14 14 18 22 22 21 22 22 22 27 32 35 36 37 38 41 44 45 46 48 50 53 56 56 57 59 60 61 65 67 66 62 55 55 65 75 86 95 95 90 90 92 92 92 93 95 96 95 93 91 93 98 99 97 93 89 84 73 59 51 43 28 15 9 5
36 36 28 24 32 34 24 17 15 15 15 15 14 14 13 13 13 13 13 14 14 14 14 15 19 23 23 23 24 23 24 29 33 34 36 37 37 38 42 46 50 52 54 56 58 58 59 61 62 63 63 62 57 52 47 46 52 64 80 96 99 92 89 92 93 93 93 92 93 97 96 91 91 97 100 96 89 84 80 69 56 48 37 22 11 6 4
39 39 33 34 39 33 26 23 18 14 15 15 13 14 13 12 13 13 13 14 14 14 14 16 20 24 24 25 26 26 28 30 32 35 36 33 30 31 34 38 43 46 50 54 58 60 61 62 61 58 56 54 48 46 48 46 46 58 76 92 99 97 95 97 97 95 95 95 97 100 96 91 94 98 97 91 85 82 76 64 52 42 28 14 7 4 4
41 43 40 40 42 39 34 32 25 18 15 14 13 14 13 12 13 13 13 13 14 15 15 15 19 22 25 28 28 29 30 29 29 34 37 34 32 35 38 39 43 50 53 55 57 57 54 50 43 39 42 43 37 36 41 41 44 58 73 85 96 100 101 101 100 99 98 99 101 100 91 89 96 98 92 87 85 82 72 57 46 35 19 8 5 5 4
39 45 49 50 50 48 42 36 31 25 19 16 15 14 13 13 13 14 14 12 14 17 18 18 18 20 25 29 29 28 27 25 27 31 35 37 41 47 47 44 46 51 49 44 42 39 34 29 24 22 25 27 25 27 31 34 38 51 71 89 99 101 101 100 101 101 100 100 101 98 91 91 97 97 91 88 88 83 70 53 41 29 14 5 5 5 5
34 38 46 49 46 44 40 37 34 28 22 19 16 15 15 15 13 14 15 13 13 17 20 22 20 20 25 27 26 23 20 20 24 30 33 38 44 51 49 39 37 38 33 28 28 25 22 21 19 18 18 19 21 22 24 28 30 38 64 93 102 100 100 100 100 100 99 100 101 96 93 95 96 95 90 86 85 83 70 53 38 23 10 5 5 5 5
33 33 37 39 38 38 38 37 35 32 26 21 20 23 23 17 12 14 15 14 14 14 18 23 24 24 28 26 22 19 18 21 26 31 36 40 45 52 49 36 30 30 27 27 28 27 27 26 22 20 17 16 18 18 17 23 27 36 61 86 94 93 92 89 91 97 100 101 99 95 96 97 95 93 89 84 84 83 70 51 32 15 6 4 6 7 8
34 32 31 33 35 36 35 34 33 33 29 23 21 25 24 16 13 15 15 15 17 17 20 25 26 26 28 26 22 22 24 27 29 30 33 39 45 51 48 38 32 31 31 32 33 32 33 31 25 21 18 15 18 17 16 21 28 38 58 79 91 96 90 82 88 100 101 95 91 91 95 98 96 95 92 88 87 82 67 46 24 8 4 6 9 13 12
35 34 32 31 32 34 34 33 33 33 31 27 24 24 23 18 16 16 16 16 18 19 22 26 27 25 25 23 23 26 27 26 26 26 29 33 37 40 38 34 31 30 30 33 34 34 34 31 27 23 19 18 19 17 17 26 35 47 65 84 98 102 95 89 95 102 95 85 84 90 97 99 97 95 92 90 88 80 63 40 19 8 7 9 11 12 9
34 35 35 35 36 37 36 34 34 34 31 31 31 29 25 22 20 19 18 18 19 19 21 23 26 27 28 25 22 24 25 24 23 24 24 26 28 29 29 28 27 27 27 31 34 36 35 32 28 23 20 20 20 18 21 28 35 52 78 96 97 90 86 89 94 90 82 82 89 97 101 101 98 95 93 89 85 76 58 33 16 14 14 12 10 8 8
33 34 34 35 38 38 35 34 36 36 34 36 41 39 33 30 28 26 23 20 20 22 22 21 23 25 28 28 25 23 24 28 28 26 25 26 27 27 28 29 30 30 32 36 38 38 37 34 31 26 22 22 20 19 23 26 31 54 88 105 97 82 77 81 84 81 83 92 99 98 97 96 94 92 91 87 80 71 51 26 13 14 14 10 7 8 14
32 33 32 32 34 35 35 35 37 37 38 43 46 42 37 35 33 32 30 26 24 24 23 23 23 23 26 31 32 29 28 31 33 33 32 31 30 30 33 38 39 38 40 43 43 40 37 36 35 31 26 24 22 21 23 25 32 56 87 100 91 76 70 75 84 91 97 101 97 90 88 88 87 87 87 85 78 65 43 20 10 11 10 8 7 10 16
31 32 32 31 31 34 37 40 42 41 42 45 43 38 35 35 33 31 31 30 28 27 26 25 25 26 28 32 35 35 33 33 35 37 38 37 34 32 36 44 48 48 47 48 46 43 39 36 36 34 30 26 25 24 24 27 37 61 84 89 78 67 66 79 95 101 98 92 87 86 89 91 89 88 88 83 71 52 29 12 8 9 8 7 9 10 15
34 33 33 31 30 31 35 38 42 45 45 45 44 42 41 40 37 34 32 31 30 30 30 29 28 29 29 30 31 33 32 31 32 35 37 37 34 31 33 42 53 57 54 50 48 45 42 39 38 36 32 30 27 25 25 28 39 60 78 78 70 69 78 93 102 99 90 84 85 91 94 91 89 90 88 80 62 38 17 8 9 9 8 8 10 12 20
39 36 37 35 32 31 32 32 37 42 45 47 48 46 46 45 42 38 35 33 31 29 29 30 30 31 32 31 30 30 30 29 29 31 33 34 33 33 35 42 54 62 61 57 54 49 45 44 42 39 36 34 30 27 26 28 36 54 69 71 70 78 93 102 100 93 90 90 91 94 92 89 90 91 86 75 54 28 10 8 9 8 9 10 11 17 27
44 42 41 40 36 33 31 30 32 35 39 44 49 50 49 48 44 39 36 33 30 29 28 28 28 30 33 36 36 36 34 32 30 31 33 34 35 37 38 44 59 70 70 68 66 60 52 49 47 44 42 38 32 28 27 28 34 45 55 61 66 78 90 95 90 86 90 93 93 93 93 94 95 89 76 60 37 15 6 9 10 8 11 12 15 25 33
45 42 41 41 38 37 38 37 37 39 42 48 53 53 51 49 44 39 36 32 30 30 29 29 28 28 30 33 36 38 38 36 34 34 34 36 38 40 40 48 64 74 69 65 66 63 56 53 51 47 44 39 33 30 29 31 36 41 48 65 82 85 81 83 88 91 95 99 98 96 96 96 92 82 68 50 25 8 7 10 9 9 12 13 19 32 34
47 44 45 46 43 44 49 53 52 54 57 58 59 57 54 49 44 39 36 34 32 31 31 32 32 31 30 30 31 33 35 36 37 38 40 42 45 47 49 54 63 68 65 62 63 62 59 56 53 48 42 36 32 31 30 31 38 42 48 68 89 88 77 83 96 100 98 99 98 96 96 95 87 75 61 41 19 8 8 9 9 10 12 16 26 35 30
51 48 49 51 48 47 52 57 58 60 61 60 58 56 51 47 43 39 36 35 34 33 33 34 34 34 33 32 31 31 32 33 35 39 45 50 53 55 59 61 65 70 72 71 69 66 62 57 50 42 36 32 29 29 31 32 37 40 43 57 77 85 84 90 98 98 97 98 98 97 97 93 84 73 55 31 13 8 10 10 10 11 14 23 34 33 21
54 52 52 53 53 52 54 56 56 56 55 54 52 50 47 45 43 42 40 40 39 39 39 38 37 37 36 35 34 33 33 34 35 38 44 50 51 52 56 61 67 75 81 80 75 68 60 51 43 35 31 30 28 28 31 32 34 36 40 51 67 80 86 89 93 96 100 101 99 100 98 90 80 69 48 23 10 11 13 12 10 11 19 31 35 25 15
56 56 55 56 59 61 60 58 57 55 53 51 49 47 46 46 46 46 47 47 46 46 44 42 41 40 38 38 37 35 33 33 34 35 38 42 47 53 61 68 73 77 80 78 71 62 51 42 36 33 31 31 31 31 32 34 36 38 41 46 56 70 83 92 95 98 100 99 98 99 96 88 77 59 33 14 10 13 14 12 9 13 25 33 28 18 15
59 60 60 60 63 65 64 62 61 59 56 54 53 51 51 50 50 49 49 48 47 46 44 42 42 42 40 39 38 37 35 33 33 35 35 35 39 47 55 60 62 64 67 65 58 49 42 37 35 35 33 33 33 34 34 36 39 41 45 51 62 77 91 98 98 99 100 100 99 98 93 84 72 48 21 8 10 13 12 11 12 17 26 28 21 17 17
64 64 64 64 65 66 67 67 66 65 63 60 58 56 54 52 50 48 46 45 43 42 40 39 40 42 43 42 39 38 37 34 34 37 38 37 36 38 40 42 45 48 52 52 46 40 38 36 36 36 35 36 37 38 39 41 43 45 49 57 71 86 96 99 100 101 101 100 99 97 90 80 64 40 17 8 10 11 11 12 14 19 24 24 22 21 20
71 70 68 68 67 67 67 66 64 62 60 57 55 53 50 47 45 43 41 40 40 41 41 41 42 43 45 45 45 44 42 40 40 43 43 42 42 42 41 41 41 43 44 44 41 39 39 39 41 41 40 40 41 41 41 43 46 49 53 62 77 92 98 100 101 101 100 100 99 93 87 76 56 33 18 12 9 9 11 13 16 21 27 32 32 28 21
75 71 69 68 66 61 57 54 51 48 46 45 44 43 41 41 41 41 41 41 42 45 47 47 48 48 48 48 51 51 49 47 47 48 48 48 50 51 51 49 48 48 48 47 47 48 48 49 49 49 47 45 45 46 47 48 51 56 62 71 87 98 101 100 101 100 99 101 97 89 84 74 51 28 17 13 10 10 13 16 21 30 40 47 43 31 21
68 64 62 62 59 54 49 45 41 38 36 36 36 37 36 37 38 38 39 41 43 45 46 47 49 52 52 51 53 54 54 54 53 52 53 55 58 61 64 67 66 64 60 59 61 64 67 68 68 66 63 59 57 56 57 58 60 67 77 86 96 101 100 100 101 100 100 100 96 89 82 68 45 27 18 13 10 10 12 19 30 42 53 57 47 30 21
64 57 51 47 45 45 44 42 38 35 32 29 28 29 30 31 32 31 31 33 35 36 37 38 42 47 51 52 53 53 55 56 56 56 57 58 60 64 70 75 78 76 73 74 75 76 78 82 85 86 86 84 81 77 75 75 76 81 91 97 100 100 100 100 100 100 100 100 98 91 78 58 36 22 16 14 13 12 15 26 42 52 58 58 45 28 21
50 42 36 33 32 31 30 29 29 29 28 25 21 17 16 17 18 18 18 19 20 22 26 31 35 41 47 51 52 53 55 55 56 59 60 60 60 63 66 70 74 77 79 81 82 81 81 82 83 87 93 96 97 95 93 91 90 94 99 101 100 100 101 100 100 100 100 99 98 95 85 66 45 29 22 17 14 16 24 39 51 57 60 56 40 24 21
33 32 31 30 29 27 23 18 17 17 18 18 16 13 12 12 12 11 11 11 11 13 20 28 34 38 42 46 49 52 54 55 56 58 61 61 61 62 66 71 76 80 83 83 84 86 87 83 82 88 96 99 99 98 94 90 91 96 98 98 99 101 101 100 100 101 99 99 100 98 91 76 57 43 32 22 15 22 40 52 56 59 61 51 33 22 22
31 30 29 27 26 25 21 17 14 14 15 15 14 14 15 16 15 13 12 11 10 11 15 22 31 36 38 41 43 47 51 54 55 57 58 59 60 61 67 76 83 86 87 87 86 89 88 82 81 90 98 98 95 92 86 82 87 94 94 93 96 100 100 99 100 101 100 100 101 100 95 82 60 41 29 18 16 33 55 61 59 63 62 47 28 22 22
27 23 19 18 20 22 19 14 15 16 17 17 17 17 18 18 17 16 14 12 12 12 14 18 26 33 37 38 38 40 45 49 52 53 54 54 56 59 64 73 81 84 84 83 83 85 83 78 80 90 96 95 92 90 86 85 90 92 91 93 97 100 99 99 100 100 100 101 100 100 100 91 70 47 30 19 23 44 61 62 63 69 63 41 25 21 20
22 17 13 11 16 22 20 15 15 18 20 22 22 21 19 17 17 17 17 16 15 16 16 17 22 28 33 35 35 36 38 41 43 45 46 48 51 55 59 64 70 74 77 78 78 77 76 76 82 92 98 96 95 95 94 94 95 95 94 97 100 100 99 100 100 100 100 101 100 100 100 98 87 67 45 30 35 52 62 65 70 73 59 37 25 22 19
12 9 7 7 13 20 21 19 19 23 27 29 27 23 18 15 16 18 18 19 19 18 18 18 19 20 23 25 27 28 30 32 32 34 37 39 43 47 51 56 59 63 70 74 73 73 76 79 81 88 94 97 97 97 98 99 100 100 98 98 99 100 99 96 96 98 100 100 101 100 100 100 98 86 65 50 51 61 67 72 77 72 55 37 27 21 18
6 4 3 5 9 15 20 24 27 28 30 31 30 25 19 16 15 15 17 19 22 22 20 18 16 14 14 14 15 17 20 22 23 24 26 28 30 32 35 38 39 42 46 48 49 56 68 73 73 76 85 91 93 95 97 99 100 100 100 99 100 101 97 92 93 98 101 100 100 100 99 100 101 97 85 75 70 70 72 77 77 67 51 37 27 20 17
4 5 6 8 11 14 19 24 27 27 26 25 23 19 16 13 12 12 13 17 21 22 21 18 15 12 11 11 11 11 13 15 16 18 18 19 21 21 20 19 20 22 25 27 32 42 54 61 66 75 87 93 95 97 99 97 92 90 94 99 99 96 93 93 95 99 101 100 100 101 100 100 100 100 96 89 80 73 73 77 75 64 51 40 29 20 16
3 4 7 9 11 13 16 18 20 20 19 18 17 16 14 12 10 11 12 15 18 19 19 17 14 12 12 11 10 10 11 11 13 14 14 15 14 13 12 13 15 17 20 25 31 39 46 52 61 74 87 95 98 99 100 96 86 80 85 95 97 93 92 95 98 100 101 100 98 98 99 100 101 101 97 88 78 72 74 77 73 63 53 45 35 24 17
5 4 7 8 10 13 14 15 17 17 17 17 18 18 16 14 13 13 13 14 15 16 15 15 14 13 12 11 11 11 11 11 12 12 12 12 11 11 11 13 15 16 17 21 27 35 43 53 61 70 78 84 87 88 90 92 88 81 83 92 98 97 96 97 98 99 100 98 95 95 98 100 101 99 93 84 77 75 77 77 72 64 58 52 42 28 17
6 4 6 8 9 10 10 11 12 14 14 15 17 18 17 16 15 15 14 14 14 14 14 14 14 13 13 13 13 12 12 12 13 12 12 12 12 12 12 15 17 20 22 25 30 37 45 52 59 64 69 76 83 87 90 92 90 85 83 89 95 95 93 91 91 94 98 99 97 97 99 100 99 95 88 82 81 81 79 77 73 69 65 59 48 31 17
6 4 5 6 6 6 6 7 7 9 11 14 18 20 20 18 17 16 16 16 15 15 15 15 14 14 14 14 14 14 14 14 14 14 13 13 12 13 16 18 21 24 28 32 38 46 53 58 61 63 66 72 80 86 88 88 87 86 85 88 91 90 86 82 82 85 92 98 100 99 100 101 99 93 86 84 84 83 80 78 76 72 67 60 48 30 16
8 6 5 5 5 4 4 5 6 7 10 14 18 20 18 17 18 19 19 19 18 18 17 16 16 16 17 16 16 15 14 14 14 15 15 14 15 19 25 29 32 35 38 40 42 47 54 62 69 75 77 79 82 86 87 86 86 86 87 88 88 85 84 85 87 89 94 98 99 98 98 99 98 93 88 85 84 84 82 78 74 69 65 57 42 24 13
15 14 10 8 8 7 6 5 6 8 10 12 13 12 11 10 12 15 17 19 20 20 19 18 18 18 18 18 18 17 17 17 17 18 17 17 19 23 29 35 42 49 53 54 53 54 56 62 70 79 86 90 90 90 89 89 88 88 90 92 92 90 89 91 94 96 99 101 99 96 96 98 98 94 88 84 85 86 83 77 71 67 60 47 29 16 10
21 20 19 17 15 13 11 10 10 11 11 9 7 6 6 6 7 8 9 11 14 17 18 20 21 20 20 19 19 18 18 18 20 21 21 21 23 27 30 35 43 52 58 62 65 66 65 65 68 75 83 89 92 92 91 89 88 88 89 91 93 92 92 94 96 98 98 96 92 89 91 94 95 92 88 87 87 85 82 76 70 60 46 29 16 11 11
34 28 26 26 24 21 20 19 18 16 15 13 11 9 8 7 7 7 6 6 7 10 11 13 14 16 17 18 19 20 20 21 23 26 28 27 28 30 32 35 42 49 55 59 63 64 62 60 60 63 68 74 80 84 86 87 86 85 86 90 94 96 96 97 96 93 87 84 81 80 82 88 92 91 89 87 86 84 82 74 59 40 24 14 12 12 13
55 46 39 35 32 29 27 25 22 21 19 18 17 16 14 12 11 11 10 8 8 7 7 7 8 9 10 12 15 19 22 22 25 28 30 30 31 34 35 37 42 47 51 54 55 54 52 51 52 55 60 65 70 75 80 82 83 84 88 94 98 99 98 98 95 88 81 78 77 74 75 80 86 88 87 86 85 82 72 55 35 21 16 16 17 15 12
69 66 60 50 42 39 35 31 28 26 24 21 20 19 19 18 19 18 17 16 15 13 12 11 10 9 8 9 11 14 16 19 22 27 29 30 32 36 39 41 45 49 53 55 55 52 50 49 49 53 61 67 72 77 80 82 84 89 95 100 101 100 99 99 98 92 85 81 78 73 70 72 78 83 85 84 78 66 49 34 25 24 27 26 24 20 17
75 77 75 64 53 48 44 38 34 33 30 27 26 25 24 23 25 26 26 25 23 21 20 19 18 15 14 12 11 11 12 14 17 23 28 32 34 37 40 44 49 52 55 58 57 55 52 51 50 53 60 68 74 78 79 80 84 92 97 97 97 99 100 100 99 97 92 88 84 80 75 73 76 81 80 73 61 49 41 38 41 44 44 41 38 35 31
75 78 79 75 69 65 60 52 45 41 38 34 33 33 31 30 30 30 30 29 28 28 28 26 24 22 20 18 15 15 15 15 16 20 25 29 32 33 34 37 42 47 51 55 55 54 53 53 54 55 60 68 75 78 76 74 77 84 88 87 88 95 100 100 100 100 98 96 94 91 85 80 77 76 72 65 58 54 53 55 57 58 57 55 52 48 44
Wind_Speed
9 11 17 25 30 30 30 32 32 33 35 37 37 33 28 27 25 22 24 25 25 25 23 21 22 25 26 25 24 25 26 25 25 25 25 26 26 25 24 23 23 23 22 22 21 21 22 23 23 23 23 24 27 29 30 30 30 30 29 28 27 26 25 23 22 22 22 23 23 23 22 21 19 17 15 15 18 20 20 20 19 19 18 17 16 16 15
12 10 16 23 28 30 29 30 30 30 33 35 35 33 27 24 24 25 27 26 22 20 21 22 24 26 30 30 28 29 29 28 28 27 25 25 24 22 21 21 21 21 21 21 21 21 22 22 23 22 22 23 25 28 30 32 32 32 31 30 28 28 27 26 24 24 24 24 24 23 23 22 21 17 14 16 18 20 20 20 20 19 18 17 16 16 15
14 8 18 24 25 27 29 30 30 30 31 33 35 35 31 27 25 25 29 29 24 18 18 20 23 26 31 33 31 30 29 28 28 27 24 21 19 18 19 20 21 21 22 22 22 22 22 22 22 21 21 22 24 26 29 31 33 33 33 32 30 30 29 28 26 26 25 25 27 26 25 24 22 18 15 16 18 18 19 20 20 19 18 16 16 15 15
11 9 19 24 26 25 26 30 32 31 32 33 32 30 28 27 25 23 25 29 29 25 20 18 20 23 27 31 32 30 28 28 28 25 22 19 17 16 17 19 21 21 21 21 20 20 20 20 20 20 19 20 21 23 25 29 32 34 35 34 33 33 31 30 29 27 26 28 29 28 29 27 22 17 15 17 18 19 20 20 20 19 17 16 16 15 15
7 8 17 24 25 19 19 28 32 31 31 32 30 26 22 22 23 22 20 23 29 30 24 19 18 19 23 28 30 30 30 29 26 21 18 17 16 15 16 17 18 18 18 17 16 16 17 17 17 16 16 17 19 20 23 26 30 33 35 35 35 35 33 32 31 29 28 28 29 30 29 23 17 15 17 19 19 19 19 20 20 18 17 16 16 15 15
6 7 16 22 17 9 12 25 31 31 30 30 29 26 20 18 21 21 18 18 24 27 23 18 16 17 21 26 29 30 29 25 21 17 15 15 15 15 16 16 16 15 15 14 14 14 14 14 15 15 16 18 20 22 24 26 29 32 33 34 35 35 34 33 31 29 29 28 28 28 23 16 14 16 18 18 18 18 20 20 19 18 17 17 16 15 14
7 8 15 15 8 6 12 20 26 29 29 29 29 26 21 17 17 18 18 16 19 21 19 17 16 17 21 26 30 30 26 21 17 14 14 14 15 16 17 17 17 17 16 15 14 14 14 15 15 16 18 20 21 22 22 23 26 29 29 29 30 31 30 30 29 28 28 26 25 24 18 14 16 18 17 17 17 19 20 20 19 18 18 17 16 15 14
4 8 8 7 5 9 13 15 20 25 25 25 25 23 20 19 15 14 17 16 16 18 17 16 17 20 24 28 29 26 23 19 17 13 12 13 13 13 14 15 15 16 15 14 14 14 14 16 17 18 18 19 20 19 19 20 22 25 27 27 27 28 28 27 27 26 24 22 24 24 18 16 18 18 16 16 17 18 20 19 19 19 18 16 15 14 14
3 7 4 6 8 9 11 13 16 20 21 22 23 21 20 19 15 13 15 16 15 18 19 18 19 21 25 28 28 25 22 19 17 14 13 12 11 9 10 12 13 13 14 15 16 17 17 18 18 18 18 18 18 18 19 20 20 21 24 24 26 31 31 27 26 25 21 21 25 23 17 17 19 18 17 17 16 17 19 19 19 19 18 16 15 14 13
2 4 3 6 6 4 7 11 14 17 19 20 21 21 19 18 15 13 15 16 16 19 21 22 21 21 24 27 26 23 21 19 17 16 16 15 13 11 12 14 14 14 15 17 18 18 18 17 16 17 17 17 18 18 19 20 20 22 24 23 25 31 31 28 26 25 22 24 25 22 19 19 19 18 18 17 17 18 19 20 20 19 18 16 15 14 13
3 3 2 3 2 4 8 11 12 15 17 17 18 18 18 18 16 13 15 16 16 18 22 24 24 23 25 27 25 21 20 19 17 16 15 13 12 14 15 15 15 15 15 16 16 16 15 14 14 15 16 17 18 19 20 21 22 23 25 27 29 31 31 30 28 25 25 26 23 21 21 20 19 20 19 18 18 19 20 21 20 19 18 17 15 14 12
5 4 3 2 2 5 8 9 10 13 15 18 17 12 13 18 17 14 15 17 16 17 21 24 25 25 25 26 24 21 19 17 15 15 16 14 13 14 15 14 13 14 13 13 13 12 12 12 13 15 17 18 19 20 20 21 22 23 25 26 27 27 26 27 26 26 26 24 21 21 21 20 21 22 20 19 20 21 21 21 20 19 18 16 15 14 12
6 5 4 3 3 6 8 6 8 12 14 17 16 11 10 15 17 15 15 16 17 18 20 23 23 23 24 25 24 21 19 17 15 15 17 18 17 16 15 14 13 12 11 11 11 11 12 13 14 16 18 20 20 20 21 21 21 21 21 22 22 22 22 23 24 25 24 24 23 23 22 22 23 22 20 19 21 21 22 22 20 18 17 17 16 14 11
7 4 3 2 3 6 7 5 7 10 9 9 10 9 9 12 15 17 17 16 17 18 19 20 21 21 23 24 23 20 18 17 15 14 15 17 18 18 18 16 15 14 13 13 14 13 12 12 14 16 19 20 20 21 21 20 19 19 18 19 22 24 25 25 24 23 23 25 25 25 24 24 24 23 21 20 21 23 23 22 20 19 18 17 15 13 11
8 5 3 2 2 5 6 5 7 7 4 5 8 11 11 12 15 17 18 18 19 20 20 20 21 21 22 22 21 19 17 17 17 16 15 16 16 17 17 16 16 16 16 16 15 13 11 11 13 16 18 19 19 20 19 19 19 18 17 19 22 24 26 27 25 23 24 25 25 24 23 23 22 22 21 21 22 24 23 22 20 19 18 17 15 12 11
8 6 5 2 2 5 5 5 7 6 4 7 10 11 12 13 14 16 17 18 20 21 22 22 22 23 24 24 22 20 19 20 20 19 18 18 17 16 16 17 18 18 18 17 15 13 12 12 14 16 18 19 19 19 19 19 20 19 20 23 25 24 25 26 25 25 25 25 24 22 21 21 21 21 21 22 24 24 23 23 21 19 18 17 15 13 12
8 6 7 6 4 5 5 5 6 5 5 7 10 10 9 9 9 11 13 15 18 20 22 23 23 24 25 26 26 24 23 24 24 23 21 20 20 19 18 19 20 21 19 17 16 14 13 13 15 17 19 19 20 20 20 20 21 21 23 26 27 25 26 27 27 26 25 25 25 24 24 23 22 22 23 24 25 24 24 23 20 18 18 17 16 14 13
9 7 7 7 6 5 4 4 5 5 5 6 6 7 6 5 5 5 7 9 12 15 18 20 22 24 25 27 28 27 26 26 27 26 24 24 24 24 23 22 23 24 22 21 19 18 16 15 15 17 19 20 21 22 22 22 22 23 24 26 26 27 28 27 27 26 24 25 26 26 25 23 22 23 25 25 24 24 24 22 20 18 18 17 16 15 13
10 9 8 8 8 7 5 5 4 4 5 5 4 3 2 2 1 1 2 3 5 7 9 12 15 18 21 24 25 26 27 27 28 28 27 27 26 26 26 26 26 25 24 23 22 19 17 16 15 16 18 19 21 22 23 24 24 25 25 26 27 29 29 27 27 27 26 26 27 26 24 23 23 25 26 25 25 25 24 22 20 19 18 17 16 15 13
10 9 8 8 10 10 8 7 5 5 5 6 5 3 2 2 3 3 3 3 3 3 5 6 8 10 13 16 18 21 24 25 26 27 28 27 25 25 26 26 26 26 26 25 22 19 17 16 17 18 19 19 21 22 24 25 26 26 27 28 30 31 30 29 28 28 28 27 26 25 24 24 24 25 26 26 26 24 22 20 19 18 18 17 16 14 13
11 10 9 8 9 10 11 10 8 8 9 9 8 6 6 6 6 6 5 4 4 4 5 6 8 9 10 12 13 15 19 23 25 25 25 24 24 24 25 25 26 28 28 23 18 16 16 18 19 20 21 21 22 23 24 24 25 27 28 29 30 31 31 30 29 29 28 27 26 25 24 24 25 26 26 26 24 23 22 21 20 20 20 18 17 16 14
10 9 8 8 8 9 10 11 10 10 11 11 10 9 8 8 8 8 7 6 6 7 7 8 8 9 10 11 12 14 16 19 22 24 24 24 24 25 25 24 24 25 23 17 14 15 18 20 22 22 22 22 23 23 23 23 24 27 28 28 28 29 30 30 29 27 26 26 26 25 25 25 26 28 28 27 26 25 25 24 23 23 22 21 19 16 14
9 7 7 8 8 8 8 9 10 10 11 11 10 10 10 10 10 10 10 10 10 10 10 9 9 9 9 9 11 13 14 15 17 19 21 21 21 21 21 20 19 19 19 18 17 18 20 21 22 22 22 22 22 22 21 21 23 26 28 29 30 31 30 29 28 27 26 26 26 25 25 26 28 29 29 28 28 28 28 27 26 25 24 22 19 15 13
10 9 8 9 9 9 9 9 10 11 12 12 12 11 11 11 12 13 13 13 13 13 13 12 11 10 9 9 9 11 12 13 15 16 19 20 20 19 19 18 17 17 18 19 19 19 20 21 21 21 21 20 20 20 20 20 22 24 25 27 29 30 29 29 29 28 26 26 27 26 27 28 29 30 30 29 29 29 28 27 26 25 24 22 17 14 14
11 10 10 10 11 12 11 10 11 12 12 13 13 12 12 13 13 14 15 15 15 15 15 15 14 13 12 11 11 10 11 12 14 16 18 20 21 21 21 22 21 20 20 20 20 21 21 21 20 20 19 19 18 18 18 19 20 22 24 25 27 29 29 29 28 27 26 27 27 27 28 29 30 31 31 30 29 27 26 26 25 25 23 20 16 15 15
12 11 11 11 12 13 13 12 12 12 13 14 14 14 14 14 14 14 14 14 15 15 15 15 15 15 14 14 13 12 12 12 13 15 17 19 20 22 23 22 22 21 21 21 21 21 21 20 20 19 18 17 16 16 17 18 20 22 24 26 27 27 26 26 27 27 28 27 27 28 29 30 31 32 30 28 27 26 26 26 26 25 22 18 16 16 16
14 14 13 12 12 13 14 14 14 14 14 15 16 16 16 15 15 14 14 14 14 15 15 15 14 14 13 13 13 13 13 13 13 14 15 16 18 19 19 19 20 20 21 21 22 21 21 20 18 17 16 16 15 16 16 18 20 22 23 25 26 26 26 27 28 28 28 28 28 28 30 31 33 32 29 28 28 28 28 27 27 25 22 19 17 17 17
13 14 14 13 12 13 14 15 15 16 16 16 16 17 17 17 16 16 15 15 15 16 16 16 16 14 13 13 13 13 13 14 14 14 15 16 16 16 17 17 17 19 20 21 21 21 20 19 19 18 18 17 16 16 16 17 20 23 23 24 25 26 27 28 29 28 27 27 27 28 30 32 33 31 29 28 28 28 28 28 27 26 23 21 20 20 20
9 11 12 12 12 13 14 15 15 16 17 17 18 18 18 17 17 17 16 15 15 15 15 15 15 14 14 13 13 13 13 13 14 15 17 17 17 16 17 18 19 20 21 22 22 21 21 21 19 18 18 17 16 16 16 17 19 21 23 23 24 26 27 28 27 26 25 26 26 28 30 32 32 30 28 28 28 29 29 28 27 26 25 23 22 22 21
6 8 9 10 10 10 11 12 13 14 15 15 15 16 16 15 15 14 14 14 13 13 13 13 14 13 13 13 14 14 14 14 15 16 17 18 17 18 18 19 20 21 21 21 21 21 20 19 18 17 18 18 17 16 16 16 17 19 21 21 24 26 27 26 25 24 24 26 27 28 31 33 32 29 28 29 30 30 29 29 29 28 26 23 22 22 22
4 4 4 5 5 6 7 8 9 11 12 14 14 15 15 14 14 14 14 14 14 13 12 13 13 13 13 13 14 15 15 15 15 16 17 18 18 19 20 20 19 19 19 19 19 18 17 15 14 15 16 16 15 15 15 14 14 16 18 19 20 22 23 23 22 22 25 28 30 31 33 34 33 30 30 32 32 32 31 31 31 28 25 23 23 23 22
3 2 3 3 5 6 7 8 10 11 12 13 14 15 15 15 15 16 17 17 16 15 15 14 13 13 14 14 14 15 16 17 18 18 18 19 20 20 20 20 19 18 19 19 19 18 16 15 14 13 12 12 13 14 12 10 10 13 15 17 18 18 18 17 16 16 19 24 29 32 34 33 32 31 32 33 33 33 33 33 31 28 26 24 24 23 22
4 4 5 7 8 9 10 11 12 13 14 14 14 15 15 15 16 17 18 18 17 17 16 15 15 15 15 16 16 16 16 17 18 19 19 20 21 21 21 21 20 20 21 21 19 18 17 17 17 16 12 10 11 12 10 8 11 14 16 17 18 16 15 14 13 13 14 17 22 27 30 31 30 31 31 32 33 35 35 34 32 29 27 25 24 23 22
5 6 8 10 11 12 12 13 13 14 14 15 15 15 15 15 17 17 18 18 18 16 16 16 16 17 17 17 17 17 16 17 17 19 20 20 21 21 22 22 21 21 20 20 21 20 18 17 17 16 13 11 13 15 14 14 16 16 17 17 16 13 13 13 12 12 13 14 17 23 28 30 31 32 33 33 35 37 36 34 32 30 27 25 24 23 23
8 10 12 14 15 15 15 14 14 14 14 14 14 14 13 14 15 16 17 17 17 16 16 17 18 18 19 18 18 17 17 17 17 18 19 19 20 21 21 21 20 19 19 20 21 21 19 17 16 17 16 15 16 18 19 18 17 16 16 15 13 12 13 14 14 13 13 14 18 22 27 31 34 35 35 35 36 37 36 35 34 30 27 25 24 23 23
12 13 15 16 16 16 16 15 14 13 14 14 14 13 13 13 14 15 16 17 16 16 17 18 19 20 20 19 18 18 18 18 18 18 18 18 19 20 21 21 20 20 21 22 22 21 19 17 16 17 18 17 16 17 17 17 17 18 18 15 13 14 15 15 14 13 14 15 17 21 26 31 34 36 36 37 38 38 39 37 34 29 26 24 23 23 23
14 15 15 16 16 17 17 15 14 13 13 13 13 13 13 13 13 13 14 16 16 16 17 18 19 20 20 20 19 19 18 18 18 19 19 19 19 20 21 21 21 21 21 22 20 18 16 15 15 16 17 18 18 17 15 14 16 20 21 18 16 16 16 14 13 13 14 15 17 20 25 29 32 35 38 39 40 40 40 37 32 28 25 23 23 22 23
14 14 14 15 16 16 16 15 14 13 13 13 13 14 13 12 11 11 13 14 16 16 17 18 19 20 20 21 21 21 20 19 19 20 20 20 21 21 21 21 21 21 21 20 19 17 16 14 15 16 18 18 19 19 17 16 17 19 21 20 19 17 17 17 16 15 14 15 17 20 23 25 28 32 36 39 40 40 38 34 30 26 24 22 22 22 22
11 11 12 13 14 15 15 15 14 13 13 13 14 14 13 12 12 12 12 13 15 16 17 17 19 19 20 20 21 21 20 20 20 20 21 21 21 21 20 20 20 20 20 20 19 18 17 17 17 18 18 19 19 20 20 21 20 20 21 23 22 20 19 19 19 17 16 16 17 18 21 23 25 28 31 35 37 38 36 32 28 25 23 22 21 21 22
9 9 9 10 11 13 13 13 13 13 13 13 14 14 14 13 13 13 12 13 14 15 16 16 17 17 17 18 18 18 18 19 19 20 20 20 19 18 17 17 17 17 18 19 18 18 19 20 21 21 21 21 21 21 21 21 21 20 21 23 23 22 21 21 20 18 17 16 16 17 18 21 24 26 28 32 37 39 37 33 29 25 23 22 21 21 22
7 7 7 8 9 10 10 11 11 11 12 12 12 12 12 12 12 13 13 13 13 14 14 15 15 14 14 14 14 14 15 15 16 17 16 16 16 15 15 15 15 15 16 17 17 18 19 20 21 22 22 23 24 24 23 21 20 21 22 23 23 23 22 22 20 17 15 15 16 16 16 19 23 25 28 33 38 40 39 36 31 26 24 23 22 22 22
7 6 5 6 7 7 8 9 9 9 9 9 9 9 9 9 10 11 12 12 12 12 13 13 13 13 12 12 11 11 11 11 12 13 14 14 14 13 13 12 12 12 13 14 15 16 18 18 19 20 21 21 22 22 22 21 20 20 21 22 22 21 20 19 17 15 14 15 16 16 17 20 24 27 31 36 40 41 40 37 31 26 24 23 22 22 22
7 6 5 5 6 6 7 8 8 8 8 7 6 5 5 6 8 9 10 10 11 11 11 11 11 11 10 10 10 9 9 10 11 11 12 12 12 11 10 10 10 10 10 11 11 13 14 16 17 18 18 18 18 18 18 19 20 22 22 22 21 20 20 18 18 17 17 17 17 17 18 21 25 30 34 38 41 41 39 36 30 25 23 23 22 22 22
6 6 5 5 5 6 6 7 7 7 7 6 5 3 3 4 6 7 7 8 9 9 9 10 9 9 8 8 9 9 9 9 9 9 9 10 9 9 9 9 9 9 9 10 10 11 12 14 15 16 16 17 17 16 16 17 20 22 23 23 23 23 23 23 23 23 22 20 18 19 20 22 26 31 35 38 39 39 37 34 30 26 24 23 23 23 23
5 5 5 5 5 5 6 6 6 6 6 5 5 4 4 5 5 5 5 6 7 7 8 8 8 7 7 7 7 8 8 8 8 8 8 9 8 7 7 8 8 9 10 11 11 12 13 14 15 16 16 17 17 18 17 18 19 22 24 25 26 26 26 25 24 24 24 22 20 20 21 22 25 30 34 36 36 36 34 32 29 26 24 24 24 25 24
4 4 4 4 4 4 4 4 5 5 5 4 5 5 5 5 5 4 5 5 6 7 7 7 7 7 7 6 7 7 7 7 8 8 8 8 8 7 7 7 8 9 10 11 12 13 13 14 15 16 16 17 17 18 17 18 19 20 22 23 23 23 22 21 20 21 21 20 19 19 20 21 24 28 30 32 33 33 33 31 28 26 26 26 26 26 26
3 3 2 2 3 3 3 3 4 4 4 4 4 4 5 6 5 4 4 5 6 7 7 8 8 8 7 7 7 8 8 8 8 9 9 9 8 8 8 8 9 9 10 11 12 13 14 14 15 16 16 17 17 17 17 17 17 18 18 19 18 18 18 17 17 17 16 16 17 18 19 21 23 25 28 29 31 32 31 30 28 27 27 27 27 26 26
4 3 3 3 3 2 2 3 3 3 4 5 5 5 6 6 6 5 4 4 4 5 6 7 8 8 8 8 8 9 9 9 10 10 10 10 10 10 9 10 10 11 11 12 13 14 15 15 15 16 16 17 17 17 17 17 17 18 19 18 17 16 16 16 15 15 14 14 15 16 18 19 21 24 26 28 29 30 30 29 29 28 28 27 27 27 26
6 5 4 4 4 3 3 3 3 3 4 4 4 5 5 6 6 6 5 5 4 4 5 5 6 7 8 8 8 9 9 10 11 11 11 11 11 12 12 11 11 12 12 13 14 15 16 16 16 15 16 16 15 15 16 17 18 19 20 19 17 16 16 15 15 15 15 15 14 15 16 18 20 23 25 27 28 29 29 30 29 28 27 26 26 27 27
10 9 8 7 6 6 5 4 3 4 4 4 4 4 4 4 4 5 5 6 5 5 5 5 5 6 7 7 8 8 9 10 11 12 13 13 13 14 14 13 13 13 14 15 16 16 17 17 16 16 15 15 15 14 15 16 18 19 19 19 18 17 16 16 16 16 16 16 15 16 17 20 22 24 26 27 28 29 29 28 27 26 26 26 26 26 26
17 15 12 10 8 8 7 6 5 5 6 6 5 5 5 4 4 4 5 5 5 5 5 5 6 6 7 7 7 7 8 9 9 11 12 14 14 15 15 15 14 14 15 16 17 18 18 18 18 17 16 15 15 15 15 16 16 16 17 18 17 16 16 16 17 17 17 16 16 17 18 20 23 25 26 27 27 28 27 27 27 27 27 27 27 27 27
19 14 9 7 7 8 8 8 8 8 8 7 7 8 8 7 6 6 6 6 5 5 5 6 6 6 6 7 7 7 7 7 8 8 9 10 11 12 13 13 13 13 14 14 16 16 17 17 18 18 17 16 14 14 14 14 14 14 15 16 15 15 15 15 16 16 16 16 17 17 18 19 21 24 25 26 27 28 28 28 27 27 27 27 27 28 28
Wind_Direction
280 255 231 217 215 215 215 217 217 216 216 218 219 223 224 219 213 214 221 230 238 239 237 235 227 217 209 205 201 200 203 206 211 215 218 222 228 231 233 231 222 214 214 217 218 218 216 215 216 219 223 223 223 222 223 227 230 231 233 236 237 236 233 232 235 241 243 243 244 248 253 255 256 261 270 280 287 290 285 275 267 262 260 259 260 262 264
295 258 215 207 211 213 215 218 217 216 216 218 220 222 222 224 227 224 221 231 243 240 235 232 226 219 212 208 204 203 206 211 214 219 223 227 231 232 230 226 218 211 210 213 217 219 218 218 220 222 225 226 226 224 224 226 229 231 234 237 238 238 236 234 235 241 245 245 245 249 251 249 249 255 264 276 286 290 284 273 265 259 257 257 259 261 263
296 235 193 195 203 208 213 215 213 211 214 217 220 224 228 233 239 231 223 230 237 230 226 229 229 228 224 219 217 215 216 220 221 223 227 229 230 226 220 215 212 210 209 211 215 217 217 220 222 224 227 228 228 228 227 228 230 233 236 237 238 238 238 237 236 238 243 245 245 248 249 244 243 249 260 271 282 287 282 273 264 257 255 256 257 259 260
283 204 182 189 197 202 208 209 207 206 209 213 217 222 228 229 229 223 218 224 231 230 232 237 236 233 228 223 220 218 217 219 221 221 224 224 222 217 211 208 209 208 208 211 214 216 217 220 223 226 229 231 233 234 232 232 233 234 236 239 240 239 239 240 240 239 241 241 242 245 243 237 236 243 253 263 272 279 278 271 262 256 254 254 255 256 258
268 196 181 182 185 191 201 203 204 204 205 209 212 214 216 214 214 216 211 217 228 234 239 246 242 232 223 217 214 212 211 213 215 216 216 217 216 213 207 204 204 205 206 209 213 217 220 223 227 232 235 238 242 242 241 239 236 235 235 236 239 241 241 242 243 246 246 242 243 246 244 238 238 244 250 259 266 273 275 268 258 253 252 252 252 254 256
251 202 177 172 171 175 196 201 202 204 205 208 209 209 209 208 210 214 211 211 224 233 238 243 238 225 217 210 208 209 210 210 212 210 207 208 212 212 209 206 206 206 208 210 213 216 218 220 224 228 232 235 237 239 242 241 238 237 234 234 239 242 242 243 246 249 250 247 247 250 250 252 259 256 256 261 267 275 275 265 254 250 249 249 250 251 254
245 200 167 164 176 184 183 190 195 199 203 207 210 214 219 216 210 211 207 204 215 226 234 235 225 213 209 209 207 208 209 208 208 209 208 206 206 207 208 209 209 210 212 214 215 215 217 218 221 226 231 235 237 240 246 246 241 236 231 233 243 247 246 247 248 250 252 253 256 256 252 256 262 259 258 259 267 277 272 259 251 249 247 247 248 250 254
228 202 172 160 182 176 173 183 190 192 195 198 203 211 217 217 213 208 204 201 205 215 221 220 211 203 205 211 212 209 208 206 202 201 203 202 200 203 206 209 213 214 215 214 214 216 218 220 224 229 233 239 244 248 255 255 246 233 224 226 237 246 248 247 250 255 253 250 256 259 252 251 257 254 252 254 263 272 264 252 248 247 244 245 246 247 252
200 199 185 136 146 161 174 181 183 188 194 197 203 211 215 217 216 205 200 200 200 206 210 208 205 204 207 213 214 211 207 203 197 194 192 191 190 193 202 206 207 210 212 213 214 215 218 221 224 228 232 240 246 250 254 256 248 230 219 218 228 238 240 241 251 260 251 241 253 259 251 251 253 247 246 252 259 261 254 245 244 243 241 242 243 245 251
194 180 154 121 127 147 170 172 175 188 197 201 209 218 221 219 214 200 196 198 197 200 203 202 202 207 212 214 212 209 204 197 193 191 189 189 193 199 206 206 205 207 211 213 215 216 218 222 226 230 234 239 245 248 250 253 247 231 219 217 226 234 236 240 253 257 245 244 254 253 243 244 246 242 245 250 253 253 247 242 241 241 239 239 240 244 249
183 154 133 113 109 134 155 163 168 182 194 195 199 214 222 219 215 203 193 192 195 199 202 201 202 208 213 211 206 205 204 199 195 195 193 194 203 213 217 214 210 210 209 209 212 217 223 232 238 240 241 242 246 248 247 247 247 236 223 219 224 230 236 244 249 244 240 248 251 242 239 240 237 239 245 248 252 253 246 241 241 239 238 237 239 243 245
146 131 129 110 100 135 152 163 163 169 181 183 184 202 215 211 214 209 192 188 192 199 203 204 206 210 210 205 202 206 212 211 208 208 209 210 214 221 227 227 222 219 217 216 220 225 232 241 244 244 245 245 247 250 248 247 244 235 224 220 224 231 238 242 237 231 238 247 242 239 245 241 233 238 245 249 254 252 245 241 239 236 236 237 238 240 243
160 134 133 130 130 147 156 168 166 163 169 177 184 195 200 203 211 209 196 193 194 196 202 206 208 208 205 202 203 211 220 222 223 222 220 218 218 221 228 232 230 231 234 234 235 237 240 243 241 239 240 243 245 247 249 248 240 228 218 215 222 233 237 233 230 232 239 242 240 244 248 240 236 242 246 249 253 249 242 240 236 232 234 238 240 241 240
185 168 146 131 149 166 163 163 165 163 168 183 189 184 184 199 209 205 200 201 198 196 198 202 203 204 204 205 210 218 224 225 226 228 225 223 222 222 227 232 233 235 241 243 246 248 249 248 244 240 240 243 244 244 245 242 230 219 213 212 220 231 233 230 232 236 235 237 242 247 244 237 240 246 247 249 252 248 241 237 233 231 234 238 241 239 232
188 179 165 112 137 176 174 166 171 173 171 171 166 165 174 191 201 203 203 205 204 201 198 199 201 205 208 209 212 218 222 223 224 226 226 228 229 230 237 244 246 249 251 250 248 246 245 242 240 241 244 245 244 243 242 234 223 216 219 228 234 235 230 226 228 231 233 239 244 244 239 236 241 247 247 247 248 246 241 235 232 232 234 235 234 229 224
187 183 188 175 153 179 186 185 185 179 141 133 144 154 169 182 193 201 204 206 208 207 204 202 203 206 209 211 212 215 217 219 221 224 226 229 231 235 242 247 247 248 249 246 242 240 240 239 238 240 242 242 242 242 239 232 225 216 218 231 240 236 223 219 221 227 234 240 241 240 240 241 245 249 250 247 245 242 238 233 229 228 228 228 225 220 219
207 214 213 207 200 197 196 195 190 178 144 135 138 140 147 162 179 194 201 207 211 210 210 210 210 211 213 214 215 217 217 216 217 219 223 227 228 230 237 242 244 244 243 243 244 243 242 241 241 241 241 240 241 242 239 234 228 219 217 226 233 227 216 216 223 229 232 235 239 243 246 247 248 251 251 247 243 239 235 231 227 225 224 222 218 215 218
220 229 222 215 218 214 200 199 199 185 165 156 147 134 126 129 144 167 185 197 204 208 212 214 216 218 220 220 221 222 221 219 219 221 224 227 227 228 232 237 240 240 240 241 242 243 244 245 242 240 240 241 241 242 241 237 230 222 222 226 225 217 213 218 228 232 233 235 240 244 244 244 247 248 246 241 237 235 233 228 223 223 224 221 216 213 217
220 224 219 215 221 223 216 214 220 210 196 194 186 157 114 91 101 148 179 185 192 201 209 215 220 224 225 227 228 229 229 228 227 228 230 231 231 231 232 233 235 237 238 239 240 241 243 243 238 234 236 240 243 244 243 239 232 227 226 224 218 213 214 221 228 232 234 236 239 241 242 245 247 247 242 235 232 231 229 223 219 220 222 219 214 211 217
223 227 223 216 219 222 221 222 228 228 225 226 225 223 246 277 286 277 252 232 228 224 221 225 230 231 233 234 234 235 236 234 230 229 231 231 230 231 232 233 234 232 231 231 232 232 233 232 231 235 239 242 245 246 244 240 235 229 224 220 214 213 217 224 227 228 231 234 236 239 243 245 245 243 238 233 231 229 225 220 218 217 218 215 211 211 222
215 219 219 219 223 226 226 226 226 223 227 237 244 246 251 261 267 263 251 243 248 250 247 243 239 236 237 237 234 234 237 234 228 225 225 224 225 228 231 232 230 228 225 223 219 219 225 231 235 242 246 248 248 246 243 240 234 228 222 217 215 216 219 222 224 226 230 233 235 238 240 240 239 236 232 229 228 225 220 217 214 211 210 207 207 214 225
213 217 220 224 231 237 236 232 229 224 225 231 237 241 248 257 261 257 250 248 253 258 261 260 255 249 244 238 233 230 232 232 230 226 223 222 224 229 233 235 233 233 236 237 230 226 232 239 244 248 250 250 248 243 238 234 229 224 218 212 214 220 220 217 219 227 232 234 236 237 238 237 235 231 228 225 221 216 213 213 212 210 208 205 207 216 225
218 219 218 221 229 238 238 235 234 233 233 237 242 246 250 253 254 254 255 256 258 259 263 265 265 263 258 250 242 237 233 231 230 228 226 225 227 231 237 240 239 239 242 243 239 236 239 243 247 249 249 246 242 236 231 227 224 222 217 211 214 220 219 215 220 230 234 234 237 238 238 236 232 229 228 225 220 215 212 211 209 207 205 207 212 220 225
218 216 213 216 224 231 232 231 234 237 241 247 252 253 252 252 253 255 257 259 261 262 263 265 265 264 263 259 252 247 242 237 232 229 226 225 225 227 230 233 234 234 235 237 238 240 243 245 246 244 241 236 230 226 223 222 222 223 220 216 217 219 219 218 223 229 232 234 236 237 237 234 230 228 227 224 219 217 216 215 211 206 204 208 214 220 224
218 220 219 218 223 228 228 224 225 228 233 238 244 250 252 254 255 257 260 262 264 265 265 265 265 263 263 262 260 255 249 242 237 233 230 228 229 229 229 229 228 227 229 233 237 239 242 242 239 234 228 224 222 219 218 221 223 224 223 221 220 220 221 221 222 225 232 236 237 236 235 233 230 228 227 224 219 216 216 217 214 209 207 210 214 218 223
221 221 219 215 219 226 231 232 234 237 239 242 246 251 254 255 256 258 262 264 267 269 270 268 267 266 264 264 262 258 253 246 240 235 234 233 233 232 231 230 231 231 232 235 237 237 235 232 227 224 221 220 220 220 219 221 224 226 226 224 222 220 219 218 221 227 233 236 237 237 235 231 229 228 226 223 218 214 214 215 212 209 209 210 212 217 225
222 221 220 219 222 229 236 243 249 253 255 256 256 256 258 260 260 261 263 265 267 269 270 269 268 267 264 261 258 253 249 244 238 233 232 232 231 232 231 231 233 235 234 232 230 228 225 222 220 221 222 223 224 226 226 225 226 228 228 226 221 217 214 216 224 232 235 234 235 236 234 231 229 227 223 218 214 212 211 211 208 206 208 209 211 218 225
227 228 228 229 232 237 241 247 253 257 260 261 261 262 263 264 266 266 266 267 267 268 268 268 266 263 260 256 253 248 242 238 235 231 228 227 227 227 225 223 223 223 222 221 222 222 221 222 225 227 229 231 232 233 234 233 231 231 231 228 220 215 214 219 228 237 238 235 234 235 235 233 231 227 222 217 213 211 209 207 205 204 206 207 210 216 222
229 232 232 233 236 241 246 250 254 258 261 261 262 264 265 266 268 268 268 268 267 265 265 265 263 259 254 249 248 246 239 232 229 227 225 224 224 221 218 216 216 215 216 218 221 224 226 229 233 236 239 242 244 245 246 245 241 238 237 230 219 213 216 224 232 238 238 236 235 235 235 233 231 227 223 218 213 210 208 205 203 203 205 208 212 217 222
218 229 232 232 235 239 246 252 255 258 261 263 264 266 267 268 270 271 270 270 268 264 262 260 257 255 250 244 242 241 235 228 224 224 224 224 222 218 217 219 220 220 221 224 227 231 235 239 243 248 251 252 253 255 258 258 252 244 239 228 215 213 220 229 234 237 238 237 236 236 235 233 230 225 221 217 213 210 208 205 203 203 207 212 216 219 223
209 228 233 233 239 244 249 253 256 259 261 262 264 266 268 270 270 270 270 270 268 266 263 260 256 254 250 245 240 237 233 228 224 222 222 223 222 220 220 223 226 230 233 236 236 236 240 245 251 257 260 262 264 267 268 267 257 242 231 220 213 215 223 230 235 238 238 235 233 232 232 231 227 221 217 215 211 209 208 206 204 205 211 217 219 220 225
246 283 291 281 278 273 268 266 267 267 266 265 264 265 267 267 267 267 266 266 266 265 263 260 258 254 250 246 241 237 234 231 227 224 223 224 225 226 228 230 232 236 240 241 236 232 235 241 242 242 249 259 267 273 275 267 243 224 215 211 210 215 224 231 239 245 244 239 236 234 232 229 225 220 216 214 210 209 209 206 204 208 215 219 219 221 226
267 290 298 295 292 288 283 278 274 271 271 271 269 266 265 264 264 263 263 262 262 261 259 256 253 250 247 246 244 241 238 235 233 231 230 229 230 232 233 235 238 240 243 244 238 234 241 244 234 225 224 231 243 257 262 237 208 200 202 205 209 218 232 243 249 252 251 247 245 242 238 234 229 224 220 215 211 211 210 206 205 210 216 218 218 221 226
269 281 287 289 291 292 289 283 277 273 272 271 268 265 263 263 264 264 264 262 260 257 254 251 248 245 244 245 245 244 243 241 238 236 236 236 236 236 236 239 242 243 244 242 237 237 246 249 236 223 219 220 227 235 231 213 197 193 197 202 209 225 247 260 264 263 260 253 248 245 240 234 228 225 221 216 213 212 210 206 207 212 216 216 217 222 225
278 282 283 284 286 286 285 281 277 273 271 268 267 265 261 260 261 262 263 263 260 255 249 245 244 243 243 243 243 245 246 246 244 243 243 242 241 240 239 241 243 242 241 240 236 238 246 251 240 227 224 228 234 237 233 222 210 204 204 207 213 228 248 262 271 270 263 256 252 249 244 235 227 221 218 216 214 212 209 207 210 214 215 215 219 223 225
280 279 279 280 280 281 281 279 275 272 271 270 270 267 260 254 253 256 258 259 258 253 247 243 242 243 245 245 245 245 247 247 247 247 247 246 246 245 244 244 243 241 241 242 241 242 247 250 242 233 231 233 237 242 244 239 227 217 213 213 218 228 243 259 267 263 257 256 257 254 249 240 231 223 218 216 215 212 210 211 213 214 215 218 222 225 226
275 275 276 276 275 276 278 277 272 270 271 273 272 270 263 255 250 251 255 257 257 254 249 246 245 245 247 249 248 246 245 244 244 245 245 245 245 246 246 246 246 245 245 247 249 250 250 247 239 232 232 234 236 240 245 239 226 219 217 216 218 227 241 253 257 254 254 258 260 257 254 248 239 230 223 219 216 214 213 213 213 214 216 221 225 227 227
269 269 272 274 275 276 278 279 276 274 274 274 273 272 270 265 257 254 256 258 257 255 251 248 248 248 249 250 250 248 245 243 241 241 242 243 243 245 247 249 250 251 251 251 251 250 247 241 232 227 228 232 234 238 239 232 223 221 223 221 220 226 237 242 245 249 254 258 261 261 261 257 248 238 231 226 220 215 212 212 212 215 218 223 227 229 229
268 271 275 279 281 281 281 281 281 279 277 276 275 276 276 273 266 261 257 255 254 253 250 248 249 250 251 252 252 250 248 245 242 241 242 244 246 249 251 252 254 255 255 255 253 248 240 233 226 223 225 228 232 236 237 233 229 229 228 224 221 226 233 237 241 246 250 254 260 264 265 261 251 242 237 231 222 213 210 211 213 217 220 224 228 230 231
273 279 284 285 285 285 283 282 281 280 277 276 275 275 274 270 265 261 258 253 251 250 249 249 250 252 254 256 255 254 251 247 244 244 246 249 251 253 254 254 253 252 252 253 251 246 238 232 227 226 229 235 239 242 243 244 246 247 240 230 227 231 236 238 240 242 245 250 256 262 263 257 246 237 230 223 215 209 209 213 216 219 223 226 229 231 232
285 285 291 292 291 290 286 281 278 277 276 276 275 272 268 262 259 258 257 256 254 253 252 252 253 256 259 260 260 258 254 250 248 248 250 252 254 255 256 255 254 251 249 248 246 242 240 238 236 235 238 241 244 245 247 250 256 257 247 236 234 239 241 239 239 241 247 253 258 263 261 249 236 226 219 213 209 208 211 214 217 221 224 226 228 232 233
294 288 292 298 298 296 293 289 286 284 283 281 278 272 263 256 253 254 257 260 260 260 259 259 260 260 261 262 261 258 255 251 249 250 251 253 255 257 257 257 256 254 252 251 247 244 242 241 242 245 247 248 250 251 251 252 254 252 245 240 239 240 240 239 239 244 250 255 261 267 264 246 228 217 211 208 208 210 213 215 218 222 224 225 229 234 236
295 289 288 293 295 293 291 290 289 289 290 289 284 274 262 256 257 259 262 263 263 262 262 264 264 263 263 262 260 256 253 250 249 251 252 254 255 255 255 256 256 256 256 256 254 249 246 245 246 248 250 251 254 257 257 254 250 247 246 245 243 239 237 239 242 247 251 254 260 269 265 246 226 214 208 207 208 211 214 216 218 221 225 228 234 238 239
291 287 285 288 290 289 289 289 288 289 292 295 295 289 280 275 273 270 267 267 267 265 264 265 265 264 263 262 260 258 254 250 250 252 254 255 255 256 259 262 262 259 256 255 254 252 251 250 251 252 252 251 251 254 255 253 249 246 246 247 246 243 244 246 247 249 252 254 258 263 260 244 227 216 211 209 210 213 215 216 217 220 227 234 240 242 243
298 296 291 289 290 289 288 289 293 296 297 294 289 287 285 282 276 269 264 264 266 266 264 264 264 261 259 260 261 261 257 255 255 256 257 258 260 262 263 266 269 269 267 264 262 259 256 253 253 255 256 254 253 252 250 248 245 245 246 248 249 250 251 252 252 253 254 254 254 255 251 240 227 219 215 212 212 214 216 218 219 223 231 238 242 244 246
308 307 301 301 307 308 304 303 309 314 313 300 289 289 292 288 279 268 259 257 258 260 261 262 262 260 256 253 253 255 255 257 260 262 263 264 267 265 259 259 266 273 276 275 274 271 268 264 261 258 257 257 256 254 249 245 243 244 246 248 250 251 252 253 255 257 255 250 246 244 240 231 222 217 215 213 214 215 218 221 224 229 236 241 243 245 247
304 302 302 307 311 307 305 310 315 317 318 313 305 301 299 295 290 282 271 263 259 259 259 260 262 263 261 255 252 252 254 255 258 262 266 270 273 270 263 260 262 267 271 272 272 273 274 273 268 263 260 257 256 254 250 247 244 243 244 246 249 250 251 252 255 252 245 235 230 229 225 219 216 214 214 215 216 218 220 224 229 234 239 242 244 245 248
287 282 288 303 316 324 326 323 314 307 308 311 311 308 305 304 305 308 308 296 278 269 265 265 265 266 266 264 261 259 258 259 261 263 265 268 269 268 265 262 262 263 265 265 264 265 267 268 267 265 263 260 258 257 256 254 252 250 249 250 250 248 248 249 247 236 226 222 222 220 215 212 211 212 213 215 217 219 223 228 234 238 240 242 243 245 247
273 265 258 257 265 278 289 297 301 300 299 301 304 306 309 312 313 313 314 313 306 297 291 288 284 279 276 274 271 267 263 261 260 261 263 265 265 265 264 263 262 263 264 264 263 263 264 266 267 267 266 265 264 262 260 259 259 257 255 252 246 238 237 241 239 228 220 219 220 217 212 210 211 213 215 217 219 222 227 232 235 237 240 242 243 245 247
268 260 248 239 239 248 257 263 274 285 290 292 293 294 298 304 309 311 314 314 311 307 304 301 300 298 292 284 277 274 271 267 263 262 263 265 266 266 266 266 266 265 265 265 265 265 267 268 268 268 267 266 265 264 264 263 261 257 253 249 241 232 229 231 233 230 228 225 220 216 214 214 214 215 217 220 223 227 231 235 237 240 243 245 247 249 251
255 244 233 228 234 243 251 258 267 274 281 286 286 280 278 278 280 286 295 301 306 310 311 308 307 309 306 298 288 281 278 275 271 267 264 264 265 266 266 267 268 268 267 267 268 269 269 269 268 267 266 264 262 262 262 261 256 250 245 241 235 228 225 228 230 231 232 230 225 221 221 221 220 220 222 224 228 232 237 240 242 245 248 250 252 253 255
253 238 219 220 240 248 249 256 263 266 268 272 273 271 271 270 267 263 266 273 279 286 295 302 305 307 307 302 296 289 282 279 276 272 268 267 269 269 268 267 265 263 262 263 265 266 267 266 265 264 263 261 258 256 254 250 243 236 233 229 223 218 220 225 226 227 229 229 228 227 227 227 227 228 230 232 235 238 241 243 246 249 250 252 253 254 255